Regional Weather Roundup
Issued by NWS

Home | Current Version | Previous Version | Graphics & Text | Print | Product List | Glossary On
Versions: 1 2 3 4 5 6 7 8 9 10 11 12 13 14 15 16 17 18 19 20 21 22 23 24 25 26 27 28 29 30 31 32 33 34 35 36 37 38 39 40 41 42 43 44 45 46 47 48 49 50
000
ASUS43 KTOP 271359
RWRKS

WEATHER ROUNDUP FOR KANSAS
NATIONAL WEATHER SERVICE GOODLAND KS
900 AM CDT FRI MAR 27 2015

NOTE:  "FAIR" INDICATES FEW OR NO CLOUDS BELOW 12,000 FEET WITH NO
SIGNIFICANT WEATHER AND/OR OBSTRUCTIONS TO VISIBILITY.

KSZ001>006-013>018-027>032-041>047-271500-
NORTHWEST KANSAS

CITY           SKY/WX    TMP DP  RH WIND       PRES   REMARKS
GOODLAND       CLOUDY    33  31  92 S10       30.21F WCI  25
HAYS           CLOUDY    34  21  60 NE9       30.28R
HILL CITY      CLOUDY    33  28  81 CALM      30.27F
RUSSELL        CLOUDY    34  27  75 NE12      30.26F WCI  25
$$

KSZ061>065-074>080-084>089-271500-
SOUTHWEST KANSAS

CITY           SKY/WX    TMP DP  RH WIND       PRES   REMARKS
DODGE CITY     CLOUDY    34  29  82 NE10      30.26R WCI  26
ELKHART          N/A     40  29  65 NE3         N/A
GARDEN CITY    CLOUDY    34  31  88 NE8       30.25R
GREAT BEND     CLOUDY    34  25  69 N14       30.28R WCI  24
LIBERAL        CLOUDY    37  28  70 NE9       30.26R
$$

KSZ066>073-081>083-090>101-271500-
SOUTHEAST KANSAS

CITY           SKY/WX    TMP DP  RH WIND       PRES   REMARKS
CHANUTE        PTSUNNY   39  31  72 N16       30.25R WCI  30
COFFEYVILLE    CLOUDY    41  32  70 N18G25    30.25R
HUTCHINSON     CLOUDY    36  29  75 N10       30.28R WCI  28
MEDICINE LODGE   N/A     37  32  82 NE15      30.25R WCI  28
NEWTON         CLOUDY    34  25  69 N17       30.28S WCI  23
PARSONS        CLOUDY    40  33  76 N15G22    30.25R WCI  32
WICHITA INTL   CLOUDY    38  29  70 NE16      30.27R WCI  29
WICHITA JABRA  CLOUDY    36  29  75 NE17      30.27R WCI  26
WINFIELD       CLOUDY    39  32  76 N15       30.27R WCI  31
$$

KSZ007>012-019>026-033>040-048>060-102>105-271500-
NORTHEAST KANSAS

CITY           SKY/WX    TMP DP  RH WIND       PRES   REMARKS
CONCORDIA      CLOUDY    30  28  92 NE5       30.29S
EMPORIA        MOSUNNY   36  30  79 N9        30.27R HAZE
LAWRENCE       SUNNY     34  29  82 N10       30.28R WCI  26
MANHATTAN      PTSUNNY   34  29  82 N6        30.30S
OLATHE IND     PTSUNNY   34  30  85 N12       30.26R WCI  25
OLATHE EXE     MOSUNNY   34  26  72 N12       30.24R WCI  25
SALINA         PTSUNNY   35  29  78 N10       30.30S WCI  27
TOPEKA FORBES  PTSUNNY   35  29  78 N10       30.28R WCI  27
$$


USA.gov is the U.S. government's official web portal to all federal, state and local government web resources and services.